sat.trackr.live / text

‹ back to catalog

COSMOS 2592

NORAD 65268 · 2025-182B

PAYLOAD ACTIVE UNKNOWN

§ Identity

Operator
Country
CIS
Launch date
2025-08-21
Launch site
PLMSC
Launch vehicle
Mass (kg)
RCS (m²)

External: N2YO · Heavens-Above · Gunter

§ Orbital elements

Epoch: 2026-09-20T05:11:39.596928Z

Period
90.20 min
Inclination
96.5773°
Eccentricity
0.0007643
Mean motion
15.96433461 rev/d
Perigee alt
279.2 km
Apogee alt
289.4 km
Semi-major
6,662.5 km
B*
1.3519e-4
RAAN
192.2886°
Arg perigee
107.4708°
Mean anomaly
252.7407°
Rev number
6,285

§ Raw data

COSMOS 25921 65268U 25182B   26263.21643052  .00055820  30313-5  13519-3 0  99942 65268  96.5773 192.2886 0007643 107.4708 252.7407 15.96433461 62859

JSON: /api/v1/satellites/65268 · /tle

For live sub-satellite position, see the globe view (requires WebGL).

§ Visibility from observer

Set your observer location to see the next 7 days of passes ≥ 10°. The values pass through the URL so the page stays shareable.

No JS? Fill the form by hand. The geolocation button needs JavaScript.